Date String (YYYY-MM-DD hh:mm:ss) UTC,Instrument flags,Ambient pressure (hPa),Sample flow (lpm),Bypass flow (lpm),Sample temperature (°C),Ambient temperature (°C),ASC tube jacket temperature (°C),LED temperature (°C),Box temperature (°C),Sample RH (%),Span deviation,Mass concentration (μg/m³),Mass concentration (μg/m³),Mass concentration (μg/m³)
DateTimeUTC,F1_M11,P_M11,Q1_M11,Q2_M11,T1_M11,T2_M11,T3_M11,T4_M11,T5_M11,U1_M11,ZSPAN_M11,X0_M11,X2_M11,X1_M11
2021-08-29 16:00:00,,0832.7,5.01,0.00,29.9,28.1,00.0,39.1,31.6,28.6,0001.5,0022.68,0012.85,0011.66
2021-08-29 16:01:00,,0832.7,5.00,0.00,29.9,28.3,00.0,39.1,31.6,28.7,0001.5,0022.51,0012.90,0011.70
2021-08-29 16:02:00,,0832.7,4.99,0.00,29.9,28.5,00.0,39.1,31.7,28.4,0001.7,0022.54,0012.91,0011.74
2021-08-29 16:03:00,,0832.7,5.02,0.00,29.9,28.6,00.0,39.1,31.7,28.5,0002.0,0021.99,0012.95,0011.75
2021-08-29 16:04:00,,0832.7,5.00,0.00,30.0,28.7,00.0,39.1,31.8,28.5,0002.0,0021.45,0012.99,0011.76
2021-08-29 16:05:00,,0832.7,4.99,0.00,30.0,28.8,00.0,39.1,31.8,28.4,0001.9,0021.55,0013.02,0011.76
2021-08-29 16:06:00,,0832.7,4.98,0.00,30.0,28.9,00.0,39.1,31.9,28.3,0001.9,0022.36,0013.13,0011.81
2021-08-29 16:07:00,,0832.7,5.00,0.00,30.0,28.9,00.0,39.1,31.9,28.4,0002.0,0023.77,0013.18,0011.81
2021-08-29 16:08:00,,0832.7,5.01,0.00,30.1,29.0,00.0,39.1,31.9,28.2,0002.3,0024.17,0013.22,0011.82
2021-08-29 16:09:00,,0832.7,5.00,0.00,30.1,29.1,00.0,39.1,31.9,28.3,0002.2,0024.57,0013.24,0011.81
2021-08-29 16:10:00,,0832.7,4.99,0.00,30.1,29.2,00.0,39.1,32.0,28.2,0002.3,0024.58,0013.18,0011.82
2021-08-29 16:11:00,,0832.7,4.99,0.00,30.1,29.2,00.0,39.2,32.0,28.3,0002.2,0024.24,0013.15,0011.80
2021-08-29 16:12:00,,0832.7,5.01,0.00,30.2,29.2,00.0,39.2,32.0,28.1,0002.2,0023.61,0013.06,0011.79
2021-08-29 16:13:00,,0832.6,5.00,0.00,30.2,29.3,00.0,39.2,32.1,28.1,0002.3,0023.05,0013.04,0011.81
2021-08-29 16:14:00,,0832.7,4.99,0.00,30.2,29.3,00.0,39.2,32.1,28.3,0002.1,0022.91,0013.01,0011.79
2021-08-29 16:15:00,,0832.6,5.00,0.00,30.2,28.7,00.0,39.2,31.9,28.0,0002.0,0022.81,0012.98,0011.80
2021-08-29 16:16:00,,0832.6,5.00,0.00,30.1,26.9,00.0,39.2,31.5,28.2,0002.1,0022.45,0012.96,0011.82
2021-08-29 16:17:00,,0832.6,5.00,0.00,30.0,26.2,00.0,39.2,31.3,28.6,0002.0,0021.96,0012.93,0011.81
2021-08-29 16:18:00,,0832.6,5.01,0.00,29.9,26.5,00.0,39.1,31.3,28.9,0001.9,0020.41,0012.88,0011.79
2021-08-29 16:19:00,,0832.6,5.00,0.00,29.8,27.0,00.0,39.1,31.3,28.9,0001.8,0019.65,0012.83,0011.75
2021-08-29 16:20:00,,0832.6,4.99,0.00,29.8,27.4,00.0,39.0,31.4,28.9,0001.9,0019.64,0012.85,0011.79
2021-08-29 16:21:00,,0832.6,5.00,0.00,29.8,27.7,00.0,39.0,31.4,28.8,0001.9,0020.21,0012.88,0011.79
2021-08-29 16:22:00,,0832.6,5.00,0.00,29.8,28.0,00.0,39.0,31.5,28.9,0002.0,0020.12,0012.88,0011.80
2021-08-29 16:23:00,,0832.6,5.00,0.00,29.8,28.3,00.0,39.0,31.6,28.9,0001.9,0020.11,0012.90,0011.83
2021-08-29 16:24:00,,0832.6,4.99,0.00,29.8,28.4,00.0,39.0,31.6,28.7,0001.7,0019.96,0012.90,0011.81
2021-08-29 16:25:00,,0832.6,5.01,0.00,29.9,28.6,00.0,39.0,31.7,28.8,0001.8,0020.08,0012.90,0011.81
2021-08-29 16:26:00,,0832.6,5.00,0.00,29.9,28.7,00.0,39.0,31.7,28.8,0001.8,0020.45,0012.94,0011.82
2021-08-29 16:27:00,,0832.6,5.00,0.00,29.9,28.8,00.0,39.0,31.8,28.5,0001.9,0020.58,0012.97,0011.83
2021-08-29 16:28:00,,0832.6,5.00,0.00,30.0,29.0,00.0,39.0,31.8,28.5,0002.1,0021.23,0012.94,0011.85
2021-08-29 16:29:00,,0832.6,5.00,0.00,30.0,29.1,00.0,39.0,31.8,28.7,0002.1,0021.98,0012.95,0011.86
2021-08-29 16:30:00,,0832.6,4.99,0.00,30.0,29.1,00.0,39.0,31.9,28.5,0002.0,0022.05,0013.01,0011.89
2021-08-29 16:31:00,,0832.6,5.01,0.00,30.1,29.2,00.0,39.1,31.9,28.4,0002.0,0021.80,0013.01,0011.87
2021-08-29 16:32:00,,0832.6,5.00,0.00,30.1,29.3,00.0,39.1,32.0,28.2,0002.1,0021.35,0013.00,0011.88
2021-08-29 16:33:00,,0832.6,5.00,0.00,30.1,29.3,00.0,39.1,32.0,28.2,0002.1,0021.71,0013.06,0011.91
2021-08-29 16:34:00,,0832.6,5.00,0.00,30.2,29.3,00.0,39.1,32.0,28.1,0002.1,0022.18,0013.11,0011.90
2021-08-29 16:35:00,,0832.6,5.00,0.00,30.1,28.2,00.0,39.1,31.7,28.1,0002.2,0022.60,0013.14,0011.92
2021-08-29 16:36:00,,0832.6,5.00,0.00,30.0,26.5,00.0,39.1,31.3,28.6,0002.1,0022.64,0013.12,0011.94
2021-08-29 16:37:00,,0832.6,5.00,0.00,29.9,26.2,00.0,39.1,31.2,28.6,0002.1,0022.32,0013.09,0011.94
2021-08-29 16:38:00,,0832.6,4.99,0.00,29.8,26.6,00.0,39.0,31.2,29.1,0001.9,0023.21,0013.07,0011.90
2021-08-29 16:39:00,,0832.6,4.99,0.00,29.7,27.0,00.0,39.0,31.3,29.2,0001.9,0022.97,0013.11,0011.89
2021-08-29 16:40:00,,0832.5,5.01,0.00,29.7,27.4,00.0,39.0,31.3,29.2,0001.8,0023.10,0013.17,0011.90
2021-08-29 16:41:00,,0832.5,5.00,0.00,29.7,27.8,00.0,38.9,31.4,29.0,0001.8,0022.98,0013.16,0011.89
2021-08-29 16:42:00,,0832.5,4.99,0.00,29.8,28.1,00.0,38.9,31.5,29.0,0001.8,0023.76,0013.18,0011.91
2021-08-29 16:43:00,,0832.5,5.01,0.00,29.8,28.3,00.0,38.9,31.5,28.8,0001.7,0024.21,0013.25,0011.95
2021-08-29 16:44:00,,0832.5,5.00,0.00,29.8,28.5,00.0,38.9,31.6,28.8,0001.6,0024.42,0013.26,0011.94
2021-08-29 16:45:00,,0832.5,5.00,0.00,29.8,28.6,00.0,38.9,31.7,28.7,0001.6,0024.28,0013.22,0011.94
2021-08-29 16:46:00,,0832.5,4.99,0.00,29.9,28.8,00.0,38.9,31.7,29.2,0001.7,0024.32,0013.19,0011.91
2021-08-29 16:47:00,,0832.5,5.00,0.00,29.9,28.9,00.0,38.9,31.7,29.1,0001.7,0023.81,0013.22,0011.89
2021-08-29 16:48:00,,0832.5,5.00,0.00,29.9,29.0,00.0,39.0,31.8,28.9,0001.7,0023.91,0013.25,0011.86
2021-08-29 16:49:00,,0832.5,5.01,0.00,30.0,29.1,00.0,39.0,31.8,28.7,0001.8,0022.81,0013.25,0011.89
2021-08-29 16:50:00,,0832.5,5.00,0.00,30.0,29.1,00.0,39.0,31.9,28.9,0001.8,0022.93,0013.24,0011.89
2021-08-29 16:51:00,,0832.5,5.00,0.00,30.0,29.2,00.0,39.0,31.9,28.6,0001.9,0022.41,0013.20,0011.90
2021-08-29 16:52:00,,0832.6,4.99,0.00,30.1,29.3,00.0,39.0,32.0,28.6,0002.0,0023.26,0013.18,0011.92
2021-08-29 16:53:00,,0832.5,5.01,0.00,30.1,29.1,00.0,39.1,31.9,28.7,0001.8,0022.26,0013.18,0011.90
2021-08-29 16:54:00,,0832.6,5.00,0.00,30.0,27.5,00.0,39.1,31.5,28.9,0001.8,0021.68,0013.17,0011.90
2021-08-29 16:55:00,,0832.6,5.00,0.00,29.9,26.2,00.0,39.0,31.2,29.2,0001.7,0022.15,0013.15,0011.90
2021-08-29 16:56:00,,0832.6,4.99,0.00,29.8,26.2,00.0,39.0,31.1,29.2,0001.6,0022.40,0013.13,0011.90
2021-08-29 16:57:00,,0832.6,5.00,0.00,29.7,26.7,00.0,38.9,31.2,29.5,0001.3,0021.92,0013.15,0011.93
2021-08-29 16:58:00,,0832.5,5.00,0.00,29.7,27.1,00.0,38.9,31.3,29.7,0001.3,0021.85,0013.16,0011.96
2021-08-29 16:59:00,,0832.5,5.00,0.00,29.7,27.5,00.0,38.9,31.3,30.0,0001.3,0022.24,0013.19,0012.00
